sat.trackr.live / text

‹ back to catalog

STARLINK-35523

NORAD 65910 · 2025-225A

PAYLOAD ACTIVE UNKNOWN

§ Identity

Operator
Country
US
Launch date
2025-10-08
Launch site
AFWTR
Launch vehicle
Mass (kg)
RCS (m²)

Purposes: comms

External: N2YO · Heavens-Above · Gunter

§ Orbital elements

Epoch: 2026-05-24T08:57:46.384128Z

Period
94.11 min
Inclination
53.1579°
Eccentricity
0.0001011
Mean motion
15.30188510 rev/d
Perigee alt
474.6 km
Apogee alt
475.9 km
Semi-major
6,853.4 km
B*
2.0184e-4
RAAN
174.2798°
Arg perigee
87.4844°
Mean anomaly
272.6273°
Rev number
3,599

§ Raw data

STARLINK-355231 65910U 25225A   26144.37345352  .00005621  00000+0  20184-3 0  99972 65910  53.1579 174.2798 0001011  87.4844 272.6273 15.30188510 35996

JSON: /api/v1/satellites/65910 · /tle

For live sub-satellite position, see the globe view (requires WebGL).

§ Visibility from observer

Set your observer location to see the next 7 days of passes ≥ 10°. The values pass through the URL so the page stays shareable.

No JS? Fill the form by hand. The geolocation button needs JavaScript.